www.pogodaiklimat.ru

Погода и климат >> Архив погоды >> Бельгия >> Charleroi


ПОГОДА в Charleroi

  • Прогноз погоды в Charleroi
  • Монитор погоды в Charleroi
  • Климат города

АРХИВ ПОГОДЫ в Charleroi

Время (UTC), дата Ветер
(напр.,м/с)
 
Видим.   Явления Облачность Т
(С)
Тd
(С)
f
(%)
Тe
(С)
Тes
(С)
Комфортность P
(гПа)
Po
(гПа)
Тmin
(С)
Tmax
(С)
R
(мм)
R24
(мм)
S
(см)
22 11.08 ЮЗ 2
{3}
30 км 8/0
[Ci fib]
+15.9 +8.2 60 +16 +16 1021.9 999.6
23 11.08 Ю 2
{3}
30 км 8/0
[Ci fib]
+15.0 +8.2 64 +15 +15 1021.6 999.2
00 12.08 Ю 2
{6}
30 км 8/0
[Ci fib]
+15.3 +7.4 59 +15 +15 1021.1 998.7
02 12.08 Ю 2
{3}
30 км 8/0
[Ci fib]
+13.5 +7.4 67 +13 +13 1019.9 997.5
01 12.08 ЮВ 2
{3}
30 км 8/0
[Ci fib]
+14.2 +7.4 64 +14 +14 1020.2 997.8
03 12.08 Ю 3
{4}
30 км 8/0
[Ci fib]
+12.8 +7.4 70 +12 +12 1019.4 996.9
04 12.08 Ю 3
{4}
30 км 4/0
[Ci fib]
+12.8 +7.5 70 +12 +12 1018.7 996.2
05 12.08 Ю 3
{5}
30 км 5/0
[Ci fib]
+12.8 +7.4 70 +12 +12 1018.4 995.9
06 12.08 Ю 3
{5}
30 км 6/0
[Ci fib]
+15.8 +7.5 58 +15 +16 1017.9 995.7 +12.7
08 12.08 Ю 5
{7}
30 км 8/3 2000 м
[Sc Ci fib]
+20.2 +6.7 41 +21 +23 комфорт 1017.0 995.1
07 12.08 Ю 4
{6}
30 км 8/3 2000 м
[Sc Ci fib]
+18.8 +7.3 47 +19 +21 1017.4 995.4
09 12.08 Ю 6
{9}
30 км 8/1 2000 м
[Sc Ci fib]
+22.3 +8.0 40 +23 +26 комфорт 1016.3 994.5
10 12.08 Ю 5
{9}
30 км 8/1 2000 м
[Sc Ci fib]
+23.4 +8.7 39 +25 +30 комфорт 1015.8 994.1
11 12.08 ЮЗ 5
{9}
30 км 8/1 2000 м
[Sc Ci fib]
+23.9 +6.4 32 +24 +30 комфорт 1015.1 993.5
12 12.08 Ю 5
{10}
30 км 8/1 2000 м
[Sc Ci fib]
+25.8 +7.7 32 +26 +32 жарко 1014.2 992.7
14 12.08 Ю 5
{8}
30 км 8/1 2000 м
[Sc Ci fib]
+26.9 +7.3 29 +27 +31 жарко 1012.6 991.2
13 12.08 Ю 5
{9}
30 км 8/1 2000 м
[Sc Ci fib]
+26.1 +7.1 30 +26 +31 жарко 1013.5 992.1
15 12.08 Ю 3
{9}
30 км 8/0
[Cs]
+27.1 +8.4 31 +27 +32 жарко 1011.6 990.3
16 12.08 Ю 4
{9}
30 км 8/0
[Ci fib]
+25.9 +8.2 33 +26 +29 жарко 1011.0 989.7
17 12.08 Ю 4
{8}
30 км 8/0
[Cc]
+25.8 +8.0 32 +26 +27 жарко 1010.5 989.2
18 12.08 Ю 3
{9}
30 км 8/0
[Ci fib]
+25.6 +8.1 33 +26 +26 жарко 1010.0 988.6 +27.7
20 12.08 ЮВ 2
{5}
30 км 9/0
[Ac trans Ci fib]
+22.9 +8.9 41 +24 +24 комфорт 1009.5 987.9
19 12.08 Ю 3
{6}
30 км 8/0
[Ac trans Ci fib]
+24.4 +8.0 35 +25 +25 комфорт 1009.7 988.3
21 12.08 ЮВ 3
{6}
30 км 9/0
[Ac trans Ci fib]
+22.3 +8.6 41 +24 +24 комфорт 1008.9 987.3
22 12.08 ЮВ 3
{5}
30 км слабый дождь 9/0
[Ac trans Ci sp]
+21.4 +10.0 48 +23 +23 комфорт 1008.5 986.9
23 12.08 З 2
{6}
30 км в посл. час дождь 9/0
[Ac trans]
+21.2 +9.7 48 +23 +23 комфорт 1008.1 986.5
00 13.08 З 5
{7}
30 км слабый дождь 9/0
[Ac trans]
+20.6 +11.2 55 +22 +22 комфорт 1008.6 986.9 0.0
02 13.08 штиль 0
{4}
30 км слабый дождь 9/0
[Ac trans]
+16.9 +16.3 96 +17 +17 1007.7 985.8
01 13.08 З 3
{8}
30 км слабый дождь 9/0
[Ac trans]
+18.4 +14.7 79 +19 +19 1007.9 986.1
03 13.08 ЮВ 3
{8}
30 км слабый дождь 9/0
[Ac trans Ci sp]
+16.4 +15.8 96 +16 +16 1007.5 985.6
04 13.08 Ю 4
{6}
20 км в посл. час дождь 9/9 2000 м
[Sc]
+16.4 +15.7 96 +16 +16 1006.7 984.8
05 13.08 ЮЗ 3
{6}
20 км 8/5 1500 м
[Sc Ac trans Ci sp]
+16.3 +15.5 95 +16 +16 1006.9 985.0
06 13.08 ЮЗ 4
{8}
20 км слабый дождь 9/8 900 м
[Cu Sc]
+16.7 +15.7 94 +16 +16 1007.2 985.3 +16.2 5
08 13.08 ЮЗ 5
{8}
2500 м ливневой дождь 10/9 120 м
[Frnb]
+16.8 +16.0 95 +16 +16 1007.6 985.7
07 13.08 ЮЗ 4
{7}
20 км в посл. час дождь 9/8 240 м
[Cu Sc]
+17.1 +16.0 93 +17 +17 1007.4 985.6
09 13.08 ЮЗ 3
{8}
10 км слабый дождь {ливн. осадки} 9/9 90 м
[Frnb]
+16.8 +16.2 96 +17 +17 1007.6 985.7
10 13.08 ЮЗ 5
{9}
20 км в посл. час дождь 8/6 300 м
[Cu Sc Ci sp]
+18.9 +15.9 83 +20 +22 1007.5 985.8
11 13.08 ЮЗ 7
{11}
20 км 9/9 300 м
[Cu Sc]
+18.8 +15.0 79 +19 +20 1007.7 986.0
12 13.08 ЮЗ 6
{11}
12 км {ливн. осадки, дождь} 9/9 330 м
[Cb cap]
+18.2 +15.1 82 +18 +19 1008.0 986.2 19
14 13.08 ЮЗ 5
{10}
20 км в посл. час ливневой дождь 9/6 360 м
[Cb cap Ac trans Ci ing]
+17.3 +15.4 89 +17 +18 1008.3 986.4
13 13.08 З 4
{9}
12 км слабый ливневой дождь, в посл. час гроза 9/9 330 м
[Cb cap]
+17.7 +14.3 80 +17 +18 1008.1 986.3
15 13.08 ЮЗ 4
{10}
20 км {гроза, ливн. осадки} 9/8 600 м
[Cb cap]
+19.7 +15.9 79 +22 +23 комфорт 1008.1 986.4
16 13.08 ЮЗ 6
{9}
7000 м слабый ливневой дождь 9/9 240 м
[Cb cap]
+17.5 +16.1 91 +17 +17 1008.4 986.6
17 13.08 З 4
{8}
20 км в посл. час ливневой дождь 6/5 750 м
[Cb cap Ci ing]
+18.1 +15.8 86 +18 +19 1008.5 986.7
18 13.08 ЮЗ 3
{10}
25 км {гроза, ливн. осадки} 9/4 360 м
[Cu med, cong Ac trans Ci ing]
+18.3 +15.8 85 +19 +19 1009.0 987.2 +20.2 27
20 13.08 З 4
{7}
25 км 6/6 870 м
[Cu Sc Ci fib]
+16.9 +14.4 85 +16 +16 1010.4 988.4
19 13.08 ЮЗ 4
{5}
25 км 9/6 630 м
[Cu hum Ac trans]
+17.8 +15.7 88 +18 +18 1009.4 987.6
21 13.08 ЮЗ 4
{7}
25 км 6/5 700 м
[Cu Sc]
+16.6 +14.3 86 +16 +16 1010.8 988.8
22 13.08 ЮЗ 4
{6}
25 км 3/3 700 м
[Cu hum]
+15.9 +14.0 88 +15 +15 1011.3 989.2
23 13.08 ЮЗ 5
{7}
25 км ясно +15.4 +13.3 87 +14 +14 1011.6 989.5
00 14.08 ЮЗ 5
{7}
25 км ясно +14.9 +13.5 91 +13 +13 1012.2 990.0
02 14.08 ЮЗ 5
{7}
25 км 6/6 210 м
[St]
+15.0 +14.0 94 +13 +13 1012.7 990.5
01 14.08 ЮЗ 5
{7}
25 км 4/4 240 м
[St]
+14.6 +13.6 94 +13 +13 1012.4 990.3
03 14.08 ЮЗ 4
{7}
15 км 9/9 180 м
[St]
+15.2 +14.3 94 +14 +14 1012.9 990.8
04 14.08 ЮЗ 4
{6}
7000 м 9/9 180 м
[St]
+15.8 +14.9 94 +15 +15 1013.1 991.0
05 14.08 З 3
{6}
5000 м дымка 9/9 150 м
[St]
+16.0 +15.1 94 +15 +15 1013.6 991.5
06 14.08 З 3
{7}
5000 м дымка 9/9 150 м
[St]
+16.2 +15.1 93 +16 +16 1014.4 992.3 +14.5
08 14.08 З 3
{5}
7000 м 9/9 210 м
[St]
+17.2 +15.6 90 +17 +18 1015.7 993.7
07 14.08 З 3
{5}
6000 м 9/9 150 м
[St]
+16.8 +15.5 92 +17 +17 1015.2 993.1
09 14.08 З 4
{7}
8000 м 9/9 270 м
[Sc]
+18.0 +15.7 86 +18 +18 1016.0 994.0
10 14.08 З 4
{7}
12 км 9/9 330 м
[Sc]
+19.2 +16.1 82 +21 +22 комфорт 1016.3 994.4
11 14.08 З 5
{8}
15 км 9/9 480 м
[Cu Sc]
+19.6 +14.8 74 +21 +22 комфорт 1016.7 994.8
12 14.08 З 4
{8}
20 км 9/9 540 м
[Cu Sc]
+22.0 +14.8 64 +25 +26 комфорт 1016.7 995.0
14 14.08 З 3
{7}
20 км 9/8 700 м
[Cu Sc]
+21.7 +13.6 60 +24 +26 комфорт 1017.3 995.6
13 14.08 З 3
{8}
20 км 9/8 700 м
[Cu Sc]
+21.0 +14.8 68 +25 +26 комфорт 1017.0 995.2
15 14.08 З 3
{8}
20 км 9/8 900 м
[Cu Sc]
+20.9 +13.3 62 +24 +25 комфорт 1017.6 995.8
16 14.08 СЗ 3
{7}
20 км 9/8 960 м
[Cu Sc]
+21.0 +12.6 59 +24 +24 комфорт 1017.8 996.0
17 14.08 З 4
{7}
20 км 8/8 1050 м
[Cu Sc]
+21.2 +12.1 56 +23 +24 комфорт 1017.8 996.0
18 14.08 З 3
{8}
20 км 9/9 1300 м
[Cu Sc]
+20.2 +11.9 59 +22 +22 комфорт 1018.1 996.2 +22.0
20 14.08 З 1
{3}
20 км 8/8 1230 м
[Cu Sc]
+17.9 +12.6 71 +19 +19 1019.4 997.3
19 14.08 СЗ 2
{6}
20 км 9/9 1230 м
[Cu Sc]
+19.1 +12.7 66 +21 +21 комфорт 1018.7 996.7
21 14.08 З 3
{6}
20 км 8/8 1380 м
[Sc]
+17.3 +12.2 72 +17 +17 1019.6 997.5
22 14.08 ЮЗ 3
{5}
20 км 3/3 1380 м
[Sc]
+16.5 +12.3 76 +16 +16 1020.1 997.9
23 14.08 ЮЗ 3
{5}
20 км 3/3 1380 м
[Sc]
+15.6 +12.6 82 +15 +15 1020.4 998.1
00 15.08 ЮЗ 3
{6}
20 км 4/4 1470 м
[Sc]
+15.4 +12.6 83 +15 +15 1020.4 998.1
02 15.08 ЮЗ 4
{5}
15 км 5/5 1500 м
[Sc]
+14.7 +13.2 91 +13 +13 1019.9 997.6
01 15.08 ЮЗ 4
{5}
20 км 4/4 1500 м
[Sc]
+14.7 +12.7 88 +13 +13 1020.1 997.8
03 15.08 ЮЗ 4
{6}
15 км 8/8 330 м
[Sc]
+15.1 +13.7 91 +14 +14 1019.6 997.3
04 15.08 ЮЗ 4
{5}
15 км 8/8 270 м
[Sc]
+15.3 +14.0 92 +14 +14 1019.6 997.3
05 15.08 ЮЗ 4
{6}
12 км 8/8 240 м
[Sc]
+15.3 +14.2 93 +14 +14 1019.9 997.6
06 15.08 ЮЗ 5
{7}
10 км 9/9 240 м
[St]
+16.0 +14.4 90 +15 +15 1020.1 997.8 +14.5
08 15.08 ЮЗ 4
{8}
15 км 9/9 360 м
[Sc]
+18.1 +14.9 82 +18 +19 1020.6 998.5
07 15.08 ЮЗ 5
{8}
12 км 9/9 240 м
[St]
+16.5 +14.6 89 +16 +16 1020.4 998.2
09 15.08 З 5
{8}
25 км 9/9 500 м
[Cu Sc]
+18.7 +14.6 77 +19 +20 1021.0 998.9
10 15.08 ЮЗ 3
{7}
25 км 9/9 570 м
[Cu Sc]
+19.1 +14.6 75 +21 +22 комфорт 1020.9 998.8
11 15.08 ЮЗ 5
{7}
25 км 9/9 700 м
[Cu Sc]
+19.0 +14.5 75 +20 +21 1020.9 998.9
12 15.08 ЮЗ 4
{8}
25 км 9/9 480 м
[Sc]
+18.1 +15.1 83 +18 +19 1021.1 999.0
14 15.08 ЮЗ 5
{7}
20 км 9/9 540 м
[Sc]
+18.8 +14.9 78 +20 +20 1020.7 998.7
13 15.08 ЮЗ 4
{6}
20 км в посл. час дождь 9/9 400 м
[Sc]
+18.7 +15.7 83 +20 +20 1020.9 998.8
15 15.08 ЮЗ 4
{7}
20 км 9/9 660 м
[Cu Sc]
+20.2 +15.1 72 +23 +23 комфорт 1020.3 998.4
16 15.08 ЮЗ 4
{6}
20 км 9/9 800 м
[Cu Sc]
+20.4 +14.4 68 +23 +23 комфорт 1020.1 998.2
17 15.08 З 5
{8}
20 км 6/6 800 м
[Cu Sc]
+20.4 +13.8 66 +23 +23 комфорт 1019.9 998.0
18 15.08 ЮЗ 4
{8}
20 км 5/5 800 м
[Cu Sc]
+19.5 +13.5 68 +21 +21 комфорт 1019.7 997.7 +21.3
20 15.08 ЮЗ 2
{4}
20 км 3/3 930 м
[Sc]
+17.6 +13.1 75 +18 +18 1020.0 997.8
19 15.08 ЮЗ 3
{6}
20 км 3/3 1000 м
[]
+18.3 +13.7 75 +19 +19 1019.8 997.7
21 15.08 Ю 2
{6}
20 км ясно +16.5 +12.7 78 +17 +17 1019.9 997.6
22 15.08 Ю 2
{4}
20 км ясно +15.4 +13.1 86 +15 +15 1019.7 997.4
23 15.08 Ю 2
{4}
20 км ясно +15.4 +12.9 85 +15 +15 1019.5 997.2
00 16.08 ЮЗ 2
{6}
15 км ясно +14.6 +12.7 88 +14 +14 1019.5 997.1
02 16.08 Ю 2
{2}
12 км ясно +14.2 +13.0 92 +14 +14 1018.9 996.5
01 16.08 ЮЗ 2
{2}
15 км ясно +14.3 +12.4 88 +14 +14 1019.3 996.9
03 16.08 Ю 2
{3}
12 км 5/5 800 м
[Sc]
+14.1 +12.9 92 +14 +14 1018.5 996.1
04 16.08 Ю 1
{2}
12 км 8/8 800 м
[Sc]
+14.7 +13.2 91 +15 +15 1018.2 995.9
05 16.08 Ю 2
{4}
12 км 8/8 800 м
[Sc]
+15.0 +13.3 90 +15 +15 1018.1 995.9
06 16.08 Ю 1
{4}
12 км 8/8 800 м
[Sc]
+15.9 +13.7 87 +17 +17 1017.9 995.7 +13.7
08 16.08 Ю 4
{5}
15 км 6/1 840 м
[Sc Ci fib]
+19.5 +14.9 75 +21 +25 комфорт 1017.2 995.3
07 16.08 Ю 2
{3}
12 км 8/8 840 м
[Sc]
+17.1 +14.0 82 +17 +18 1017.5 995.4
09 16.08 Ю 4
{6}
15 км 6/1 600 м
[Cu hum Ci fib]
+20.5 +14.6 69 +23 +28 комфорт 1016.9 995.1
10 16.08 ЮЗ 4
{7}
15 км 6/5 750 м
[Cu Sc Ci fib]
+21.8 +14.1 62 +25 +29 комфорт 1016.5 994.8
11 16.08 Ю 3
{7}
15 км 6/5 750 м
[Cu Sc Ci fib]
+22.7 +14.1 58 +26 +31 жарко 1015.9 994.3
12 16.08 Ю 3
{7}
20 км 6/1 1050 м
[Cu hum Ci fib]
+24.4 +13.9 52 +27 +36 жарко 1015.3 993.7
14 16.08 З 3
{7}
20 км 6/1 1200 м
[Cu hum Ci fib]
+26.0 +14.0 48 +28 +35 жарко 1014.5 993.1
13 16.08 ЮЗ 4
{7}
20 км 6/1 1050 м
[Cu hum Ci fib]
+25.7 +13.9 48 +28 +35 жарко 1014.8 993.4
15 16.08 З 2
{8}
20 км 6/1 1200 м
[Cu hum Ci fib]
+26.0 +13.8 47 +28 +34 жарко 1014.1 992.7
16 16.08 З 3
{6}
20 км 6/1 1200 м
[Cu hum Ci fib]
+26.5 +13.2 44 +28 +31 жарко 1013.9 992.6
17 16.08 З 3
{6}
20 км 6/1 1500 м
[Cu hum Ci fib]
+26.2 +13.6 46 +28 +30 жарко 1013.6 992.2
18 16.08 С 4
{8}
20 км 6/1 1500 м
[Cu hum Ci sp]
+24.5 +14.5 54 +27 +27 жарко 1013.6 992.1 +27.0
20 16.08 С 4
{7}
20 км 8/5 1500 м
[Sc Ci sp]
+20.9 +14.8 68 +24 +24 комфорт 1014.7 992.9
19 16.08 С 3
{6}
20 км 6/1 1500 м
[Cu hum Ci sp]
+22.6 +14.3 59 +26 +26 жарко 1013.9 992.3
21 16.08 С 4
{7}
20 км 8/5 1500 м
[Sc Ci sp]
+19.6 +15.3 76 +22 +22 комфорт 1014.7 992.9
22 16.08 СЗ 3
{6}
20 км 9/8 1200 м
[Cb cap]
+19.0 +15.4 80 +21 +21 комфорт 1015.5 993.6
23 16.08 С 5
{8}
20 км 9/8 600 м
[Cb cap]
+17.9 +15.2 84 +17 +17 1016.0 994.0
00 17.08 С 6
{8}
20 км 9/9 240 м
[Cb cap]
+17.4 +15.1 86 +17 +17 1015.7 993.6
02 17.08 СЗ 3
{6}
15 км слабый ливневой дождь, в посл. час гроза 9/9 150 м
[Frnb]
+14.8 +14.4 97 +14 +14 1016.5 994.3
01 17.08 СЗ 3
{8}
15 км гроза с градом 9/9 240 м
[Cb cap]
+15.3 +14.5 95 +15 +15 1016.4 994.2
03 17.08 З 2
{8}
5000 м слабый ливневой дождь, в посл. час гроза 9/9 150 м
[St]
+14.9 +14.7 99 +15 +15 1016.9 994.6
04 17.08 нст 1
{4}
9000 м 10/9 120 м
[Frnb]
+14.7 +14.4 98 +15 +15 1017.3 995.0
05 17.08 СЗ 1
{4}
10 км 9/9 150 м
[Sc]
+14.7 +13.6 93 +15 +15 1017.3 995.0
06 17.08 СЗ 2
{8}
10 км в посл. час ливневой дождь {гроза} 9/9 210 м
[Sc]
+14.7 +13.9 95 +14 +14 1018.0 995.7 +14.5 7
08 17.08 СЗ 2
{5}
12 км 9/9 210 м
[Sc]
+15.7 +14.4 92 +16 +16 1018.8 996.6
07 17.08 СЗ 2
{5}
12 км 9/9 180 м
[Sc]
+14.9 +14.0 94 +15 +15 1018.6 996.3
09 17.08 СЗ 2
{5}
12 км 6/5 400 м
[Sc Ci sp]
+16.8 +14.5 86 +17 +21 1019.4 997.3
10 17.08 С 4
{6}
20 км 5/4 600 м
[Cu Sc Ci sp]
+18.5 +12.7 69 +19 +24 1019.8 997.7
11 17.08 С 3
{6}
20 км 4/4 870 м
[Cu med, cong]
+20.0 +11.8 59 +22 +29 комфорт 1019.9 997.9
12 17.08 С 2
{6}
20 км 4/4 1080 м
[Cu med, cong]
+20.0 +10.4 54 +22 +30 комфорт 1020.1 998.1
14 17.08 З 3
{5}
20 км 1/1 1500 м
[Cu med, cong]
+21.8 +9.3 45 +23 +31 комфорт 1019.8 997.9
13 17.08 С 2
{6}
20 км 3/3 1320 м
[Cu med, cong]
+20.8 +9.9 50 +23 +32 комфорт 1020.1 998.2
15 17.08 СЗ 3
{7}
20 км 1/1 1500 м
[Cu med, cong]
+21.6 +9.9 47 +23 +29 комфорт 1019.7 997.8
16 17.08 З 2
{6}
20 км 1/1 1500 м
[Cu med, cong]
+21.1 +10.1 49 +23 +26 комфорт 1019.6 997.8
17 17.08 С 3
{5}
20 км 1/1 1500 м
[Cu med, cong]
+21.5 +10.0 48 +23 +24 комфорт 1019.8 997.9
18 17.08 СЗ 2
{7}
20 км 1/1 1500 м
[Cu hum]
+20.5 +10.8 54 +23 +23 комфорт 1020.2 998.3 +22.8
20 17.08 С 2
{3}
20 км 1/1 1500 м
[Sc Ci fib]
+17.9 +11.4 66 +18 +18 1021.5 999.4
19 17.08 СЗ 2
{4}
20 км 1/1 1500 м
[Cu Sc Ci fib]
+18.9 +10.9 60 +20 +20 1020.8 998.8
21 17.08 С 1
{4}
20 км 1/1 1500 м
[Sc Ci fib]
+16.8 +11.8 72 +18 +18 1022.0 999.8
22 17.08 С 2
{3}
20 км 1/1 1350 м
[Sc Ci fib]
+16.0 +12.1 78 +16 +16 1022.6 1000.3
23 17.08 З 2
{3}
20 км 1/1 1350 м
[Sc Ci fib]
+14.7 +11.4 81 +14 +14 1022.8 1000.4
00 18.08 З 2
{4}
20 км 1/1 1350 м
[Sc Ci fib]
+14.2 +10.6 79 +14 +14 1023.1 1000.7
02 18.08 ЮЗ 2
{3}
20 км 4/1 1350 м
[Sc Ci fib]
+13.1 +10.0 81 +12 +12 1023.2 1000.6
01 18.08 ЮЗ 2
{3}
20 км мгла 1/1 1350 м
[Sc Ci fib]
+13.8 +10.3 79 +13 +13 1023.2 1000.7
03 18.08 Ю 2
{3}
20 км 4/1 1350 м
[Sc Ci fib]
+12.8 +10.3 85 +12 +12 1023.3 1000.7
04 18.08 Ю 2
{3}
20 км 4/1 1350 м
[Sc Ci fib]
+12.3 +10.4 88 +11 +11 1023.3 1000.6
05 18.08 ЮЗ 3
{3}
20 км 4/0
[Ci fib]
+11.9 +10.4 91 +10 +10 1023.4 1000.8
06 18.08 ЮЗ 3
{4}
20 км 1/0
[Ci fib]
+13.0 +11.2 89 +12 +12 1023.5 1001.0 +11.9
08 18.08 ЮЗ 2
{4}
20 км 1/1 480 м
[Cu hum Ci fib]
+16.9 +11.9 72 +17 +22 1023.7 1001.4
07 18.08 ЮЗ 3
{4}
20 км 1/0
[Ci fib]
+15.0 +11.8 81 +14 +17 1023.6 1001.2
09 18.08 ЮЗ 3
{6}
20 км 1/1 480 м
[Cu hum Ac trans Ci fib]
+18.4 +9.5 56 +19 +26 1023.8 1001.6
10 18.08 З 2
{6}
20 км 4/1 900 м
[Cu hum Ac trans Ci fib]
+19.1 +9.9 55 +20 +29 1023.6 1001.5
11 18.08 ЮЗ 4
{7}
20 км 4/4 1050 м
[Cu Sc Ci fib]
+19.7 +11.0 57 +21 +26 комфорт 1023.6 1001.5
12 18.08 З 3
{7}
20 км 5/5 1050 м
[Cu Sc Ci fib]
+19.9 +11.2 57 +22 +27 комфорт 1023.6 1001.6
14 18.08 ЮЗ 4
{6}
20 км 8/8 1050 м
[Cu Sc]
+19.9 +11.8 60 +22 +23 комфорт 1023.2 1001.1
13 18.08 ЮЗ 4
{7}
20 км 8/8 1050 м
[Cu Sc Ci fib]
+20.1 +11.7 58 +22 +24 комфорт 1023.5 1001.4
15 18.08 ЮЗ 4
{7}
20 км 9/9 900 м
[Cu Sc]
+19.9 +12.3 62 +22 +22 комфорт 1022.8 1000.8
16 18.08 З 4
{7}
20 км 9/9 1050 м
[Cu Sc]
+19.9 +12.4 62 +22 +22 комфорт 1022.8 1000.8
17 18.08 З 4
{6}
20 км 9/9 1050 м
[Cu Sc]
+20.1 +12.8 63 +22 +22 комфорт 1022.6 1000.6
18 18.08 З 3
{7}
20 км 8/8 1050 м
[Cu Sc]
+19.2 +12.6 66 +21 +21 комфорт 1022.7 1000.7 +21.1
20 18.08 З 2
{4}
20 км 8/8 1020 м
[Sc Ci fib]
+18.4 +12.4 68 +19 +19 1023.5 1001.3
19 18.08 ЮЗ 3
{6}
20 км 8/8 1020 м
[Sc Ci fib]
+18.7 +12.1 65 +20 +20 1023.0 1000.9
21 18.08 ЮЗ 2
{6}
20 км 6/6 1020 м
[Sc Ci fib]
+17.6 +12.5 72 +18 +18 1023.5 1001.3

 

Местоположение метеостанции Charleroi (Бельгия): широта 50.47 долгота 4.45 высота над уровнем моря 192 м.

В архиве по умолчанию представлена погода в Charleroi за последнюю неделю. Архивные данные за месяц целиком и за предыдущие месяцы, начиная с января 2011 года, Вы можете получить, выбрав интересующий диапазон дат из раскрывающегося списка и нажав кнопку "Ввод!".


*Определитесь, кто Вы:
робот инопланетянин человек

Внимание! Время в таблицах - всемирное. Для получения местного времени необходимо прибавить поправку, которая в Charleroi равна 1 ч.

Смотрите также архив погоды в соседних городах и на ближайших метеорологических станциях:

Погода в Ernage (Бельгия) (28 км)
Погода в Florennes (Бельгия) (30 км)
Погода в Uccle (Бельгия) (37 км)
Погода в Beauvechain (Бельгия) (38 км)
Погода в Dourbes (Бельгия) (43 км)
Погода в Chievres (Бельгия) (45 км)
Погода в Bruxelles (Бельгия) (48 км)
Погода в Humain (Бельгия) (64 км)
Погода в Melle (Бельгия) (72 км)
Погода в Schaffen (Бельгия) (73 км)

Пояснения к столбцам:

Ветер - указаны скорость ветра в м/с - средняя за 10 мин, порывы в срок и между сроками (в фигурных скобках) и направление, откуда дует ветер: С - северный, СВ - северо-восточный, В - восточный, ЮВ - юго-восточный, Ю - южный, ЮЗ - юго-западный, З - западный, СЗ - северо-западный.
Видимость - горизонтальная дальность видимости в метрах или километрах. При видимости от 1 до 10 км при отсутствии осадков обычно наблюдается дымка, при ухудшении видимости до 1 км и менее - туман. В сухую погоду видимость может ухудшаться дымом, пылью или мглою.
Явления - указаны атмосферные явления, наблюдавшиеся в срок или в последний час перед сроком; фигурными скобками обозначены явления, наблюдавшиеся между сроками (за 1-3 часа до срока); квадратными скобками обозначены град или гололедные отложения с указанием их диаметра в мм.
Облачность - указаны через наклонную черту общая и нижняя облачность в баллах и высота нижней границы облаков в метрах; квадратными скобками обозначены формы облаков: Ci - перистые, Cs - перисто-слоистые, Cc - перисто-кучевые, Ac - высококучевые, As - высокослоистые, Sc - слоисто-кучевые, Ns - слоисто-дождевые, Cu - кучевые, Cb - кучево-дождевые. Подробнее классификацию облаков см. в Атласе облаков (PDF).
T - Температура воздуха - температура, измеренная на высоте 2 м над землей.
Td - Температура точки росы - температура, при понижении до которой содержащийся в воздухе водяной пар достигнет насыщения.
f - Относительная влажность воздуха - влажноcть воздуха, измеренная на высоте 2 м над землей.
Te - Эффективная температура - температура, которую ощущает одетый по сезону человек в тени. Характеристика душности погоды. При расчете учитывается влияние влажности воздуха и скорости ветра на теплоощущения человека.
Tes - Эффективная температура на солнце - температура, которую ощущает человек, с поправкой на солнечный нагрев. Характеристика знойности погоды. Зависит от высоты солнца над горизонтом, облачности и скорости ветра. Ночью, в пасмурную погоду, а также при ветре 12 м/с и более поправка равна нулю.
P - Атмосферное давление - приведенное к уровню моря атмосферное давление.
Po - Атмосферное давление - измеренное на уровне метеостанции атмосферное давление.
Tmin - Минимальная температура - минимум температуры воздуха на высоте 2 м над землей.
Tmax - Максимальная температура - максимум температуры воздуха на высоте 2 м над землей.
R - Количество осадков - Количество выпавших осадков за период времени, мм. При наведении курсора мыши на число - период времени, за который выпало указанное количество осадков.
R24 - Количество осадков - Количество выпавших осадков за 24 часа, мм.
S - Снежный покров - Высота снежного покрова, см. При наведении курсора мыши на число - состояние снежного покрова и степень покрытия местности в баллах.